Time,TemperatureF,DewpointF,PressureIn,WindDirection,WindDirectionDegrees,WindSpeedMPH,WindSpeedGustMPH,Humidity,HourlyPrecipIn,Conditions,Clouds,dailyrainin,SoftwareType,DateUTC
2013-05-24 00:02:00,51.0,41.0,30.05,SE,131,1.0,-999.0,68,-99.99,,,-99.99,,2013-05-24 06:02:00,
2013-05-24 00:12:00,51.0,41.0,30.05,SE,130,1.0,-999.0,69,-99.99,,,-99.99,,2013-05-24 06:12:00,
2013-05-24 00:21:00,51.0,41.0,30.06,SE,128,1.0,-999.0,68,-99.99,,,-99.99,,2013-05-24 06:21:00,
2013-05-24 00:32:00,51.0,42.0,30.03,ESE,119,1.0,-999.0,69,-99.99,,,-99.99,,2013-05-24 06:32:00,
2013-05-24 00:42:00,51.0,41.0,30.02,ESE,117,1.0,-999.0,68,-99.99,,,-99.99,,2013-05-24 06:42:00,
2013-05-24 00:52:00,52.0,41.0,30.02,SE,127,19.0,-999.0,67,-99.99,,,-99.99,,2013-05-24 06:52:00,
2013-05-24 01:01:00,51.0,41.0,30.02,SE,125,22.0,-999.0,69,-99.99,,,-99.99,,2013-05-24 07:01:00,
2013-05-24 01:11:00,51.0,42.0,30.03,SE,130,19.0,-999.0,70,-99.99,,,-99.99,,2013-05-24 07:11:00,
2013-05-24 01:22:00,51.0,42.0,30.00,SE,125,22.0,-999.0,70,-99.99,,,-99.99,,2013-05-24 07:22:00,
2013-05-24 01:32:00,52.0,42.0,30.00,SE,136,20.0,-999.0,70,-99.99,,,-99.99,,2013-05-24 07:32:00,
2013-05-24 01:42:00,52.0,43.0,30.01,SE,136,19.0,-999.0,71,-99.99,,,-99.99,,2013-05-24 07:42:00,
2013-05-24 01:52:00,52.0,43.0,30.03,SE,138,23.0,-999.0,71,-99.99,,,-99.99,,2013-05-24 07:52:00,
2013-05-24 02:02:00,53.0,44.0,30.00,SSE,148,17.0,-999.0,70,-99.99,,,-99.99,,2013-05-24 08:02:00,
2013-05-24 02:11:00,53.0,43.0,30.01,SE,142,13.0,-999.0,69,-99.99,,,-99.99,,2013-05-24 08:11:00,
2013-05-24 02:22:00,53.0,44.0,30.01,SE,141,18.0,-999.0,69,-99.99,,,-99.99,,2013-05-24 08:22:00,
2013-05-24 02:33:00,54.0,44.0,30.01,SE,145,20.0,-999.0,69,-99.99,,,-99.99,,2013-05-24 08:33:00,
2013-05-24 02:42:00,54.0,44.0,30.00,SE,136,22.0,-999.0,70,-99.99,,,-99.99,,2013-05-24 08:42:00,
2013-05-24 02:52:00,54.0,44.0,29.99,SE,139,24.0,-999.0,70,-99.99,,,-99.99,,2013-05-24 08:52:00,
2013-05-24 03:02:00,54.0,44.0,29.99,SSE,148,17.0,-999.0,70,-99.99,,,-99.99,,2013-05-24 09:02:00,
2013-05-24 03:11:00,53.0,44.0,29.99,SE,135,22.0,-999.0,71,-99.99,,,-99.99,,2013-05-24 09:11:00,
2013-05-24 03:21:00,53.0,45.0,29.99,SE,144,18.0,-999.0,73,-99.99,,,-99.99,,2013-05-24 09:21:00,
2013-05-24 03:32:00,53.0,45.0,29.99,SE,139,18.0,-999.0,73,-99.99,,,-99.99,,2013-05-24 09:32:00,
2013-05-24 03:42:00,53.0,45.0,29.97,SE,137,21.0,-999.0,74,-99.99,,,-99.99,,2013-05-24 09:42:00,
2013-05-24 03:52:00,53.0,45.0,29.98,SSE,150,14.0,-999.0,74,-99.99,,,-99.99,,2013-05-24 09:52:00,
2013-05-24 04:03:00,53.0,45.0,29.95,SE,142,21.0,-999.0,75,-99.99,,,-99.99,,2013-05-24 10:03:00,
2013-05-24 04:12:00,53.0,45.0,29.95,SSE,147,19.0,-999.0,74,-99.99,,,-99.99,,2013-05-24 10:12:00,
2013-05-24 04:22:00,53.0,46.0,29.96,SSE,151,18.0,-999.0,75,-99.99,,,-99.99,,2013-05-24 10:22:00,
2013-05-24 04:32:00,54.0,46.0,29.95,SSE,151,18.0,-999.0,74,-99.99,,,-99.99,,2013-05-24 10:32:00,
2013-05-24 04:42:00,54.0,45.0,29.96,SSE,151,21.0,-999.0,73,-99.99,,,-99.99,,2013-05-24 10:42:00,
2013-05-24 04:52:00,54.0,46.0,29.95,SSE,153,18.0,-999.0,73,-99.99,,,-99.99,,2013-05-24 10:52:00,
2013-05-24 05:02:00,54.0,46.0,29.96,SSE,148,18.0,-999.0,74,-99.99,,,-99.99,,2013-05-24 11:02:00,
2013-05-24 05:12:00,54.0,46.0,29.94,SSE,152,19.0,-999.0,75,-99.99,,,-99.99,,2013-05-24 11:12:00,
2013-05-24 05:22:00,54.0,46.0,29.95,SSE,148,23.0,-999.0,75,-99.99,,,-99.99,,2013-05-24 11:22:00,
2013-05-24 05:32:00,54.0,46.0,29.92,SE,140,21.0,-999.0,76,-99.99,,,-99.99,,2013-05-24 11:32:00,
2013-05-24 05:42:00,54.0,46.0,29.93,SE,145,23.0,-999.0,76,-99.99,,,-99.99,,2013-05-24 11:42:00,
2013-05-24 05:51:00,54.0,47.0,29.94,SSE,148,21.0,-999.0,77,-99.99,,,-99.99,,2013-05-24 11:51:00,
2013-05-24 06:02:00,53.0,47.0,29.94,SE,146,18.0,-999.0,78,-99.99,,,-99.99,,2013-05-24 12:02:00,
2013-05-24 06:11:00,54.0,47.0,29.93,SE,145,23.0,-999.0,78,-99.99,,,-99.99,,2013-05-24 12:11:00,
2013-05-24 06:21:00,54.0,47.0,29.93,SE,134,21.0,-999.0,77,-99.99,,,-99.99,,2013-05-24 12:21:00,
2013-05-24 06:32:00,54.0,47.0,29.92,SE,140,25.0,-999.0,76,-99.99,,,-99.99,,2013-05-24 12:32:00,
2013-05-24 06:42:00,54.0,47.0,29.92,SE,143,19.0,-999.0,77,-99.99,,,-99.99,,2013-05-24 12:42:00,
2013-05-24 06:52:00,54.0,47.0,29.93,SE,145,20.0,-999.0,77,-99.99,,,-99.99,,2013-05-24 12:52:00,
2013-05-24 07:02:00,54.0,47.0,29.94,SSE,157,18.0,-999.0,78,-99.99,,,-99.99,,2013-05-24 13:02:00,
2013-05-24 07:11:00,54.0,48.0,29.93,SE,146,14.0,-999.0,78,-99.99,,,-99.99,,2013-05-24 13:11:00,
2013-05-24 07:21:00,55.0,48.0,29.92,SSE,150,17.0,-999.0,79,-99.99,,,-99.99,,2013-05-24 13:21:00,
2013-05-24 07:32:00,55.0,48.0,29.92,SSE,160,20.0,-999.0,78,-99.99,,,-99.99,,2013-05-24 13:32:00,
2013-05-24 07:42:00,55.0,48.0,29.92,SSE,148,18.0,-999.0,78,-99.99,,,-99.99,,2013-05-24 13:42:00,
2013-05-24 07:52:00,55.0,49.0,29.91,SE,137,23.0,-999.0,79,-99.99,,,-99.99,,2013-05-24 13:52:00,
2013-05-24 08:01:00,56.0,49.0,29.92,SSE,155,21.0,-999.0,78,-99.99,,,-99.99,,2013-05-24 14:01:00,
2013-05-24 08:11:00,56.0,49.0,29.91,SSE,156,16.0,-999.0,78,-99.99,,,-99.99,,2013-05-24 14:11:00,
2013-05-24 08:21:00,56.0,49.0,29.90,SSE,149,1.0,-999.0,77,-99.99,,,-99.99,,2013-05-24 14:21:00,
2013-05-24 08:32:00,56.0,49.0,29.90,SSE,157,2.0,-999.0,76,-99.99,,,-99.99,,2013-05-24 14:32:00,
2013-05-24 08:42:00,57.0,50.0,29.90,SSE,159,1.0,-999.0,77,-99.99,,,-99.99,,2013-05-24 14:42:00,
2013-05-24 08:52:00,57.0,50.0,29.91,South,169,3.0,-999.0,76,-99.99,,,-99.99,,2013-05-24 14:52:00,
2013-05-24 09:02:00,57.0,50.0,29.91,South,169,3.0,-999.0,76,-99.99,,,-99.99,,2013-05-24 15:02:00,
2013-05-24 09:11:00,58.0,50.0,29.91,South,171,23.0,-999.0,75,-99.99,,,-99.99,,2013-05-24 15:11:00,
2013-05-24 09:21:00,58.0,50.0,29.92,South,174,23.0,-999.0,74,-99.99,,,-99.99,,2013-05-24 15:21:00,
2013-05-24 09:33:00,58.0,50.0,29.91,South,169,26.0,-999.0,75,-99.99,,,-99.99,,2013-05-24 15:33:00,
2013-05-24 09:43:00,58.0,50.0,29.91,South,172,21.0,-999.0,75,-99.99,,,-99.99,,2013-05-24 15:43:00,
2013-05-24 09:52:00,58.0,51.0,29.93,South,172,29.0,-999.0,75,-99.99,,,-99.99,,2013-05-24 15:52:00,
2013-05-24 10:03:00,58.0,50.0,29.91,South,172,31.0,-999.0,74,-99.99,,,-99.99,,2013-05-24 16:03:00,
2013-05-24 10:12:00,58.0,50.0,29.93,SSE,168,22.0,-999.0,74,-99.99,,,-99.99,,2013-05-24 16:12:00,
2013-05-24 10:22:00,59.0,51.0,29.91,South,169,23.0,-999.0,75,-99.99,,,-99.99,,2013-05-24 16:22:00,
2013-05-24 10:32:00,59.0,51.0,29.92,SSE,160,25.0,-999.0,74,-99.99,,,-99.99,,2013-05-24 16:32:00,
2013-05-24 10:42:00,59.0,51.0,29.91,South,174,21.0,-999.0,74,-99.99,,,-99.99,,2013-05-24 16:42:00,
2013-05-24 10:52:00,60.0,51.0,29.89,South,169,23.0,-999.0,72,-99.99,,,-99.99,,2013-05-24 16:52:00,
2013-05-24 11:02:00,61.0,52.0,29.90,South,169,1.0,-999.0,72,-99.99,,,-99.99,,2013-05-24 17:02:00,
2013-05-24 11:12:00,62.0,52.0,29.89,SSE,167,1.0,-999.0,69,-99.99,,,-99.99,,2013-05-24 17:12:00,
2013-05-24 11:22:00,63.0,52.0,29.89,South,176,2.0,-999.0,67,-99.99,,,-99.99,,2013-05-24 17:22:00,
2013-05-24 11:32:00,63.0,52.0,29.89,South,170,27.0,-999.0,67,-99.99,,,-99.99,,2013-05-24 17:32:00,
2013-05-24 11:42:00,64.0,53.0,29.89,South,185,35.0,-999.0,66,-99.99,,,-99.99,,2013-05-24 17:42:00,
2013-05-24 11:52:00,65.0,54.0,29.89,South,185,1.0,-999.0,67,-99.99,,,-99.99,,2013-05-24 17:52:00,
2013-05-24 12:01:00,66.0,54.0,29.88,South,188,26.0,-999.0,65,-99.99,,,-99.99,,2013-05-24 18:01:00,
2013-05-24 12:12:00,66.0,54.0,29.89,South,181,18.0,-999.0,64,-99.99,,,-99.99,,2013-05-24 18:12:00,
2013-05-24 12:21:00,67.0,55.0,29.88,South,175,28.0,-999.0,65,-99.99,,,-99.99,,2013-05-24 18:21:00,
2013-05-24 12:32:00,67.0,54.0,29.87,South,171,29.0,-999.0,62,-99.99,,,-99.99,,2013-05-24 18:32:00,
2013-05-24 12:42:00,67.0,54.0,29.87,South,189,22.0,-999.0,63,-99.99,,,-99.99,,2013-05-24 18:42:00,
2013-05-24 12:51:00,68.0,54.0,29.88,South,185,30.0,-999.0,61,-99.99,,,-99.99,,2013-05-24 18:51:00,
2013-05-24 13:01:00,70.0,55.0,29.88,South,189,19.0,-999.0,59,-99.99,,,-99.99,,2013-05-24 19:01:00,
2013-05-24 13:11:00,71.0,56.0,29.86,South,183,21.0,-999.0,59,-99.99,,,-99.99,,2013-05-24 19:11:00,
2013-05-24 13:21:00,71.0,54.0,29.87,SSW,194,12.0,-999.0,56,-99.99,,,-99.99,,2013-05-24 19:21:00,
2013-05-24 13:32:00,71.0,53.0,29.88,South,184,6.0,-999.0,53,-99.99,,,-99.99,,2013-05-24 19:32:00,
2013-05-24 13:41:00,72.0,56.0,29.87,SSW,200,19.0,-999.0,58,-99.99,,,-99.99,,2013-05-24 19:41:00,
2013-05-24 13:52:00,72.0,54.0,29.87,SW,216,11.0,-999.0,54,-99.99,,,-99.99,,2013-05-24 19:52:00,
2013-05-24 14:02:00,72.0,56.0,29.89,SSW,196,14.0,-999.0,56,-99.99,,,-99.99,,2013-05-24 20:02:00,
2013-05-24 14:11:00,73.0,56.0,29.86,South,181,24.0,-999.0,56,-99.99,,,-99.99,,2013-05-24 20:11:00,
2013-05-24 14:21:00,73.0,55.0,29.85,SW,215,3.0,-999.0,53,-99.99,,,-99.99,,2013-05-24 20:21:00,
2013-05-24 14:32:00,74.0,56.0,29.85,South,191,6.0,-999.0,53,-99.99,,,-99.99,,2013-05-24 20:32:00,
2013-05-24 14:42:00,75.0,55.0,29.86,SSW,202,6.0,-999.0,50,-99.99,,,-99.99,,2013-05-24 20:42:00,
2013-05-24 14:52:00,75.0,52.0,29.86,SSW,213,11.0,-999.0,45,-99.99,,,-99.99,,2013-05-24 20:52:00,
2013-05-24 15:01:00,75.0,55.0,29.85,SSW,196,14.0,-999.0,50,-99.99,,,-99.99,,2013-05-24 21:01:00,
2013-05-24 15:11:00,75.0,57.0,29.85,South,173,13.0,-999.0,53,-99.99,,,-99.99,,2013-05-24 21:11:00,
2013-05-24 15:21:00,76.0,55.0,29.84,South,170,11.0,-999.0,49,-99.99,,,-99.99,,2013-05-24 21:21:00,
2013-05-24 15:32:00,76.0,54.0,29.85,SSE,165,9.0,-999.0,47,-99.99,,,-99.99,,2013-05-24 21:32:00,
2013-05-24 15:42:00,77.0,53.0,29.84,South,183,9.0,-999.0,43,-99.99,,,-99.99,,2013-05-24 21:42:00,
2013-05-24 15:53:00,77.0,54.0,29.84,SSW,194,3.0,-999.0,45,-99.99,,,-99.99,,2013-05-24 21:53:00,
2013-05-24 16:02:00,77.0,52.0,29.83,WSW,252,4.0,-999.0,42,-99.99,,,-99.99,,2013-05-24 22:02:00,
2013-05-24 16:12:00,76.0,53.0,29.84,SW,225,4.0,-999.0,45,-99.99,,,-99.99,,2013-05-24 22:12:00,
2013-05-24 16:22:00,77.0,52.0,29.84,South,191,5.0,-999.0,41,-99.99,,,-99.99,,2013-05-24 22:22:00,
2013-05-24 16:33:00,78.0,53.0,29.84,SSE,150,5.0,-999.0,43,-99.99,,,-99.99,,2013-05-24 22:33:00,
2013-05-24 16:42:00,77.0,55.0,29.84,SE,124,12.0,-999.0,46,-99.99,,,-99.99,,2013-05-24 22:42:00,
2013-05-24 16:52:00,76.0,56.0,29.84,ESE,114,13.0,-999.0,50,-99.99,,,-99.99,,2013-05-24 22:52:00,
2013-05-24 17:02:00,77.0,55.0,29.83,ESE,104,12.0,-999.0,47,-99.99,,,-99.99,,2013-05-24 23:02:00,
2013-05-24 17:11:00,77.0,56.0,29.83,SSE,152,7.0,-999.0,47,-99.99,,,-99.99,,2013-05-24 23:11:00,
2013-05-24 17:22:00,77.0,55.0,29.83,SE,141,5.0,-999.0,47,-99.99,,,-99.99,,2013-05-24 23:22:00,
2013-05-24 17:32:00,78.0,56.0,29.82,SSE,158,11.0,-999.0,47,-99.99,,,-99.99,,2013-05-24 23:32:00,
2013-05-24 17:42:00,77.0,55.0,29.83,SE,141,10.0,-999.0,47,-99.99,,,-99.99,,2013-05-24 23:42:00,
2013-05-24 17:52:00,77.0,54.0,29.83,SE,127,13.0,-999.0,45,-99.99,,,-99.99,,2013-05-24 23:52:00,
2013-05-24 18:01:00,77.0,53.0,29.83,ESE,105,15.0,-999.0,43,-99.99,,,-99.99,,2013-05-25 00:01:00,
2013-05-24 18:11:00,76.0,55.0,29.82,East,101,20.0,-999.0,48,-99.99,,,-99.99,,2013-05-25 00:11:00,
2013-05-24 18:21:00,76.0,54.0,29.84,ESE,104,20.0,-999.0,48,-99.99,,,-99.99,,2013-05-25 00:21:00,
2013-05-24 18:32:00,75.0,55.0,29.83,East,101,19.0,-999.0,51,-99.99,,,-99.99,,2013-05-25 00:32:00,
2013-05-24 18:42:00,74.0,57.0,29.83,East,98,16.0,-999.0,54,-99.99,,,-99.99,,2013-05-25 00:42:00,
2013-05-24 18:51:00,74.0,57.0,29.83,East,98,16.0,-999.0,54,-99.99,,,-99.99,,2013-05-25 00:51:00,
2013-05-24 19:01:00,73.0,56.0,29.84,ESE,110,17.0,-999.0,54,-99.99,,,-99.99,,2013-05-25 01:01:00,
2013-05-24 19:11:00,73.0,56.0,29.83,East,97,15.0,-999.0,54,-99.99,,,-99.99,,2013-05-25 01:11:00,
2013-05-24 19:22:00,73.0,55.0,29.84,ESE,104,17.0,-999.0,54,-99.99,,,-99.99,,2013-05-25 01:22:00,
2013-05-24 19:32:00,73.0,56.0,29.84,East,100,14.0,-999.0,55,-99.99,,,-99.99,,2013-05-25 01:32:00,
2013-05-24 19:42:00,72.0,56.0,29.84,ESE,110,14.0,-999.0,57,-99.99,,,-99.99,,2013-05-25 01:42:00,
2013-05-24 19:52:00,71.0,55.0,29.85,ESE,118,14.0,-999.0,58,-99.99,,,-99.99,,2013-05-25 01:52:00,
2013-05-24 20:02:00,70.0,55.0,29.84,ESE,113,15.0,-999.0,60,-99.99,,,-99.99,,2013-05-25 02:02:00,
2013-05-24 20:11:00,69.0,55.0,29.84,ESE,118,15.0,-999.0,61,-99.99,,,-99.99,,2013-05-25 02:11:00,
2013-05-24 20:21:00,68.0,55.0,29.83,ESE,109,15.0,-999.0,62,-99.99,,,-99.99,,2013-05-25 02:21:00,
2013-05-24 20:32:00,68.0,55.0,29.84,ESE,120,16.0,-999.0,63,-99.99,,,-99.99,,2013-05-25 02:32:00,
2013-05-24 20:42:00,67.0,54.0,29.85,ESE,117,16.0,-999.0,63,-99.99,,,-99.99,,2013-05-25 02:42:00,
2013-05-24 20:51:00,67.0,54.0,29.85,ESE,117,16.0,-999.0,64,-99.99,,,-99.99,,2013-05-25 02:51:00,
2013-05-24 21:02:00,66.0,54.0,29.85,ESE,114,15.0,-999.0,65,-99.99,,,-99.99,,2013-05-25 03:02:00,
2013-05-24 21:11:00,66.0,54.0,29.86,ESE,120,16.0,-999.0,65,-99.99,,,-99.99,,2013-05-25 03:11:00,
2013-05-24 21:21:00,65.0,54.0,29.86,ESE,118,15.0,-999.0,67,-99.99,,,-99.99,,2013-05-25 03:21:00,
2013-05-24 21:32:00,64.0,54.0,29.87,ESE,119,16.0,-999.0,69,-99.99,,,-99.99,,2013-05-25 03:32:00,
2013-05-24 21:43:00,64.0,54.0,29.87,ESE,118,16.0,-999.0,70,-99.99,,,-99.99,,2013-05-25 03:43:00,
2013-05-24 21:53:00,64.0,54.0,29.87,ESE,118,16.0,-999.0,70,-99.99,,,-99.99,,2013-05-25 03:53:00,
2013-05-24 22:02:00,63.0,53.0,29.89,ESE,116,13.0,-999.0,72,-99.99,,,-99.99,,2013-05-25 04:02:00,
2013-05-24 22:13:00,63.0,53.0,29.90,ESE,111,13.0,-999.0,71,-99.99,,,-99.99,,2013-05-25 04:13:00,
2013-05-24 22:23:00,62.0,53.0,29.89,ESE,111,13.0,-999.0,72,-99.99,,,-99.99,,2013-05-25 04:23:00,
2013-05-24 22:33:00,62.0,53.0,29.90,ESE,113,13.0,-999.0,72,-99.99,,,-99.99,,2013-05-25 04:33:00,
2013-05-24 22:43:00,62.0,53.0,29.89,ESE,113,13.0,-999.0,71,-99.99,,,-99.99,,2013-05-25 04:43:00,
2013-05-24 22:52:00,63.0,52.0,29.89,ESE,122,16.0,-999.0,68,-99.99,,,-99.99,,2013-05-25 04:52:00,
2013-05-24 23:02:00,63.0,52.0,29.89,ESE,123,16.0,-999.0,67,-99.99,,,-99.99,,2013-05-25 05:02:00,
2013-05-24 23:12:00,62.0,52.0,29.89,SE,135,13.0,-999.0,70,-99.99,,,-99.99,,2013-05-25 05:12:00,
2013-05-24 23:22:00,62.0,52.0,29.91,SE,129,17.0,-999.0,71,-99.99,,,-99.99,,2013-05-25 05:22:00,
2013-05-24 23:32:00,62.0,52.0,29.89,SE,128,18.0,-999.0,70,-99.99,,,-99.99,,2013-05-25 05:32:00,
2013-05-24 23:43:00,61.0,52.0,29.89,SE,130,17.0,-999.0,74,-99.99,,,-99.99,,2013-05-25 05:43:00,
2013-05-24 23:52:00,61.0,52.0,29.90,SE,134,17.0,-999.0,72,-99.99,,,-99.99,,2013-05-25 05:52:00,